CW1035 Weather Reports


Display with metric or nautical units.
time (UTC)temp
F
wind
direction
speed
MPH
gust
MPH
rain 1hr
in
rain 24hr
in
rain mn
in
humidity
%
barometer
mb
20260905162231 58 311 0.0 7.0 0.00 0.00 0.00 81 1018.7
20260905161730 58 262 3.0 7.0 0.00 0.00 0.00 81 1018.7
20260905161300 57 271 1.0 6.0 0.00 0.00 0.00 81 1018.7
20260905160300 57 255 2.0 4.0 0.00 0.00 0.00 81 1018.7
20260905155800 57 289 3.0 5.0 0.00 0.00 0.00 81 1018.7
20260905154800 58 300 3.0 5.0 0.00 0.00 0.00 81 1018.8
20260905154301 58 298 2.0 4.0 0.00 0.00 0.00 81 1018.7
20260905153800 58 293 2.0 4.0 0.00 0.00 0.00 81 1018.8
20260905153300 57 297 0.0 4.0 0.00 0.00 0.00 83 1018.8
20260905152800 57 284 2.0 4.0 0.00 0.00 0.00 84 1018.9
20260905151800 56 286 0.0 4.0 0.00 0.00 0.00 85 1018.9
20260905151300 56 304 1.0 4.0 0.00 0.00 0.00 86 1018.8
20260905150259 55 286 2.0 3.0 0.00 0.00 0.00 87 1018.7
20260905145800 55 260 1.0 3.0 0.00 0.00 0.00 88 1018.7
20260905144259 55 282 2.0 4.0 0.00 0.00 0.00 89 1018.7
20260905143759 55 307 3.0 5.0 0.00 0.00 0.00 89 1018.6
20260905143259 55 261 1.0 5.0 0.00 0.01 0.00 89 1018.5
20260905142259 55 283 2.0 4.0 0.00 0.01 0.00 90 1018.5
20260905141759 54 274 2.0 4.0 0.00 0.01 0.00 91 1018.4
20260905141259 54 262 2.0 4.0 0.00 0.01 0.00 91 1018.4
20260905140759 54 283 2.0 4.0 0.00 0.01 0.00 91 1018.3
20260905140259 54 267 1.0 4.0 0.00 0.02 0.00 92 1018.3
20260905135259 53 262 2.0 4.0 0.00 0.02 0.00 92 1018.3
20260905134758 53 279 2.0 4.0 0.00 0.02 0.00 92 1018.3
20260905134258 53 258 3.0 4.0 0.00 0.03 0.00 92 1018.3
20260905133758 53 266 2.0 4.0 0.00 0.03 0.00 92 1018.3
20260905133258 53 277 3.0 4.0 0.00 0.03 0.00 92 1018.3
20260905132758 53 285 2.0 3.0 0.00 0.03 0.00 92 1018.3
20260905131757 53 268 2.0 3.0 0.00 0.04 0.00 92 1018.2
20260905131257 53 262 0.0 1.0 0.00 0.04 0.00 92 1018.3
20260905130757 53 262 0.0 3.0 0.00 0.04 0.00 92 1018.2
20260905130257 53 263 1.0 3.0 0.00 0.04 0.00 92 1018.3
20260905125257 53 255 1.0 3.0 0.00 0.04 0.00 92 1018.2
20260905124757 53 255 0.0 3.0 0.00 0.04 0.00 92 1018.2
20260905124257 53 264 3.0 3.0 0.00 0.04 0.00 92 1018.1
20260905123756 53 257 2.0 2.0 0.00 0.04 0.00 92 1018.1
20260905123257 53 318 0.0 0.0 0.00 0.05 0.00 91 1018.1
20260905122757 53 318 0.0 0.0 0.00 0.05 0.00 91 1018.1
20260905121756 53 318 0.0 0.0 0.00 0.05 0.00 91 1018.0
20260905120256 53 265 0.0 2.0 0.00 0.06 0.00 90 1018.0
20260905115755 53 266 0.0 3.0 0.00 0.06 0.00 90 1018.0
20260905114756 54 69 2.0 3.0 0.00 0.06 0.00 89 1017.9
20260905114256 54 281 2.0 3.0 0.00 0.06 0.00 89 1017.9
20260905113755 54 261 2.0 3.0 0.00 0.06 0.00 89 1017.8
20260905113255 54 259 2.0 3.0 0.00 0.07 0.00 88 1017.8
20260905112755 54 259 2.0 3.0 0.00 0.07 0.00 89 1017.8
20260905112255 54 257 1.0 3.0 0.00 0.07 0.00 88 1017.8
20260905111755 54 266 0.0 3.0 0.00 0.07 0.00 89 1017.8
20260905110755 54 296 3.0 4.0 0.00 0.07 0.00 90 1017.8
20260905110255 53 257 2.0 2.0 0.00 0.07 0.00 90 1017.8
20260905105755 53 269 0.0 2.0 0.00 0.07 0.00 90 1017.8
20260905105254 53 269 0.0 2.0 0.00 0.07 0.00 91 1017.8
20260905104754 53 270 1.0 3.0 0.00 0.07 0.00 91 1017.8
20260905104254 54 272 2.0 4.0 0.00 0.07 0.00 90 1017.9
20260905103754 54 244 2.0 4.0 0.00 0.07 0.00 90 1017.8
20260905103254 54 255 1.0 5.0 0.00 0.07 0.00 90 1017.8
20260905102754 54 262 2.0 5.0 0.00 0.07 0.00 90 1017.8
20260905102254 54 259 3.0 5.0 0.00 0.07 0.00 91 1017.9
20260905101253 54 278 2.0 5.0 0.00 0.07 0.00 91 1017.8
20260905095753 54 289 5.0 5.0 0.00 0.07 0.00 91 1017.6
20260905095253 54 241 2.0 5.0 0.00 0.07 0.00 91 1017.5
20260905094753 54 279 2.0 4.0 0.00 0.07 0.00 91 1017.6
20260905094253 54 264 2.0 5.0 0.00 0.07 0.00 91 1017.5
20260905093753 54 270 2.0 6.0 0.00 0.07 0.00 91 1017.6
20260905092752 54 260 3.0 6.0 0.00 0.07 0.00 92 1017.7
20260905091752 54 271 2.0 5.0 0.00 0.07 0.00 92 1017.7
20260905091253 54 248 2.0 5.0 0.00 0.07 0.00 92 1017.7
20260905090752 54 262 4.0 5.0 0.00 0.07 0.00 92 1017.6
20260905090252 54 262 3.0 3.0 0.00 0.07 0.00 92 1017.6
20260905085752 54 259 2.0 3.0 0.00 0.07 0.00 91 1017.6
20260905084752 55 257 2.0 4.0 0.00 0.07 0.00 91 1017.5
20260905084251 55 266 3.0 4.0 0.00 0.07 0.00 91 1017.5
20260905083752 55 259 2.0 4.0 0.00 0.07 0.00 91 1017.5
20260905083251 55 262 2.0 4.0 0.00 0.07 0.00 90 1017.4
20260905082752 55 280 2.0 4.0 0.00 0.07 0.00 90 1017.4
20260905081752 55 278 2.0 5.0 0.00 0.07 0.00 91 1017.3
20260905081251 55 282 3.0 5.0 0.00 0.07 0.00 90 1017.3
20260905080751 55 264 3.0 5.0 0.00 0.07 0.00 90 1017.3
20260905080251 55 281 3.0 5.0 0.00 0.07 0.00 90 1017.4
20260905075751 55 268 1.0 5.0 0.00 0.07 0.00 90 1017.4
20260905075251 55 269 4.0 5.0 0.00 0.07 0.00 90 1017.4
20260905074751 55 278 4.0 4.0 0.00 0.07 0.00 90 1017.4
20260905074250 55 280 1.0 4.0 0.00 0.07 0.00 90 1017.3
20260905073750 55 286 3.0 4.0 0.00 0.07 0.00 90 1017.3
20260905072750 55 278 2.0 4.0 0.00 0.07 0.00 90 1017.2
20260905072250 55 271 2.0 5.0 0.00 0.07 0.00 90 1017.2
20260905071749 55 283 4.0 5.0 0.00 0.07 0.00 90 1017.3
20260905071249 55 262 1.0 4.0 0.00 0.07 0.00 90 1017.3
20260905070249 56 283 4.0 5.0 0.00 0.07 0.00 89 1017.2
20260905065750 56 265 3.0 5.0 0.00 0.07 0.07 88 1017.2
20260905064749 56 269 2.0 2.0 0.00 0.07 0.07 88 1017.1
20260905063749 56 268 0.0 0.0 0.00 0.07 0.07 88 1017.0
20260905062748 56 268 0.0 0.0 0.00 0.07 0.07 88 1016.9
20260905062249 56 268 0.0 0.0 0.00 0.07 0.07 88 1016.9
20260905061748 56 268 0.0 0.0 0.00 0.07 0.07 87 1016.9
20260905061248 57 268 0.0 0.0 0.00 0.07 0.07 87 1016.9
20260905060748 57 268 0.0 0.0 0.00 0.07 0.07 87 1017.0
20260905060248 57 268 0.0 0.0 0.00 0.07 0.07 86 1016.9
20260905055748 57 268 0.0 2.0 0.00 0.07 0.07 86 1016.9
20260905055248 57 268 0.0 2.0 0.00 0.07 0.07 86 1016.9
20260905054748 57 268 1.0 2.0 0.00 0.07 0.07 86 1016.8
20260905054248 57 268 2.0 2.0 0.00 0.07 0.07 86 1016.9
20260905053748 57 268 0.0 1.0 0.00 0.07 0.07 87 1016.9
20260905053248 57 268 0.0 1.0 0.00 0.07 0.07 87 1016.8
20260905052248 57 268 0.0 3.0 0.00 0.07 0.07 87 1016.9
20260905051747 56 268 2.0 4.0 0.00 0.07 0.07 88 1016.8
20260905051247 56 271 1.0 4.0 0.00 0.07 0.07 88 1016.8
20260905050747 56 264 2.0 3.0 0.00 0.07 0.07 88 1016.8
20260905050247 56 276 2.0 3.0 0.00 0.07 0.07 88 1016.8
20260905045747 56 271 1.0 4.0 0.00 0.07 0.07 88 1016.9
20260905045247 56 268 2.0 4.0 0.00 0.07 0.07 88 1016.9
20260905044747 56 277 4.0 4.0 0.00 0.07 0.07 88 1016.9
20260905044247 56 280 2.0 4.0 0.00 0.07 0.07 88 1016.8
20260905043747 56 275 0.0 5.0 0.00 0.07 0.07 88 1016.9
20260905043247 57 262 1.0 5.0 0.00 0.07 0.07 88 1016.9
20260905042746 57 278 3.0 5.0 0.00 0.07 0.07 87 1016.9
20260905042247 57 254 4.0 4.0 0.00 0.07 0.07 86 1016.8
20260905041747 57 274 0.0 4.0 0.00 0.07 0.07 86 1016.9
20260905040746 58 283 1.0 3.0 0.00 0.07 0.07 84 1016.9
20260905040246 58 268 1.0 2.0 0.00 0.07 0.07 84 1016.9
20260905035746 58 268 0.0 0.0 0.00 0.07 0.07 83 1016.8
20260905034746 59 268 0.0 0.0 0.00 0.07 0.07 82 1016.8
20260905034246 59 268 0.0 0.0 0.00 0.07 0.07 82 1016.8
20260905033246 59 268 0.0 0.0 0.00 0.07 0.07 80 1016.7
20260905032746 60 267 0.0 0.0 0.00 0.07 0.07 80 1016.7
20260905032246 60 268 0.0 0.0 0.00 0.07 0.07 79 1016.7
20260905031745 60 268 0.0 0.0 0.00 0.07 0.07 78 1016.6
20260905030745 60 268 0.0 0.0 0.00 0.07 0.07 79 1016.5
20260905030245 60 268 0.0 0.0 0.00 0.07 0.07 78 1016.5
20260905025745 60 268 0.0 0.0 0.00 0.07 0.07 78 1016.4
20260905025245 61 268 0.0 0.0 0.00 0.07 0.07 78 1016.4
20260905024745 61 268 0.0 2.0 0.00 0.07 0.07 78 1016.4
20260905024244 61 268 0.0 2.0 0.00 0.07 0.07 77 1016.4
20260905023744 61 268 2.0 3.0 0.00 0.07 0.07 77 1016.2
20260905023244 61 268 2.0 3.0 0.00 0.07 0.07 77 1016.2
20260905022744 62 287 2.0 4.0 0.00 0.07 0.07 76 1016.2
20260905021744 62 255 2.0 5.0 0.00 0.07 0.07 75 1016.1
20260905021244 63 269 1.0 5.0 0.00 0.07 0.07 75 1016.1
20260905020744 63 276 1.0 5.0 0.00 0.07 0.07 74 1016.2
20260905020244 63 281 3.0 5.0 0.00 0.07 0.07 74 1016.1
20260905015744 63 289 3.0 5.0 0.00 0.07 0.07 73 1016.1
20260905015244 64 322 2.0 3.0 0.00 0.07 0.07 73 1016.1
20260905014243 64 287 1.0 4.0 0.00 0.07 0.07 73 1016.1
20260905013743 64 266 2.0 4.0 0.00 0.07 0.07 73 1016.1
20260905013243 64 287 0.0 4.0 0.00 0.07 0.07 74 1016.0
20260905012743 63 294 2.0 5.0 0.00 0.07 0.07 75 1016.1
20260905011743 63 282 3.0 8.0 0.00 0.07 0.07 74 1015.9
20260905010743 63 289 4.0 6.0 0.00 0.07 0.07 74 1015.8
20260905010243 63 246 4.0 7.0 0.00 0.07 0.07 75 1015.8
20260905005743 63 315 4.0 7.0 0.00 0.07 0.07 75 1015.6
20260905005242 63 278 2.0 6.0 0.00 0.07 0.07 75 1015.5
20260905004742 63 264 3.0 6.0 0.00 0.07 0.07 75 1015.6
20260905004242 62 250 0.0 8.0 0.00 0.07 0.07 77 1015.5
20260905003742 62 288 2.0 8.0 0.00 0.07 0.07 77 1015.4
20260905003242 62 240 2.0 8.0 0.00 0.07 0.07 77 1015.3
20260905002742 62 294 5.0 8.0 0.00 0.07 0.07 77 1015.5
20260905002242 62 234 1.0 7.0 0.00 0.07 0.07 78 1015.3
20260905001742 62 269 3.0 8.0 0.00 0.07 0.07 77 1015.4
20260905001242 63 294 2.0 9.0 0.00 0.07 0.07 76 1015.5
20260905000741 63 31 3.0 9.0 0.00 0.07 0.07 76 1015.4
20260905000241 63 20 2.0 8.0 0.00 0.07 0.07 76 1015.4
20260904235741 63 359 1.0 8.0 0.00 0.07 0.07 76 1015.2
20260904234241 63 264 6.0 8.0 0.00 0.07 0.07 76 1015.3
20260904233741 63 290 3.0 8.0 0.00 0.07 0.07 76 1015.3
20260904232741 63 346 3.0 8.0 0.00 0.07 0.07 76 1015.3
20260904232240 63 294 2.0 7.0 0.00 0.07 0.07 76 1015.3
20260904231741 63 278 2.0 7.0 0.00 0.07 0.07 76 1015.2
20260904231240 63 259 3.0 7.0 0.00 0.07 0.07 77 1015.1
20260904230740 63 322 2.0 7.0 0.00 0.07 0.07 76 1015.1
20260904230240 63 259 3.0 6.0 0.00 0.07 0.07 76 1015.1
20260904225740 62 310 1.0 8.0 0.00 0.07 0.07 77 1015.1
20260904225240 61 266 0.0 8.0 0.00 0.07 0.07 79 1015.1
20260904223739 62 240 4.0 8.0 0.00 0.07 0.07 78 1015.0
20260904222739 62 256 2.0 9.0 0.00 0.07 0.07 79 1015.0
20260904222239 62 331 9.0 11.0 0.00 0.07 0.07 79 1014.9
20260904221739 62 292 7.0 11.0 0.00 0.07 0.07 78 1014.9
20260904221239 62 10 5.0 9.0 0.00 0.07 0.07 80 1014.9
20260904220739 62 318 3.0 9.0 0.00 0.07 0.07 79 1015.0
20260904215739 62 345 5.0 9.0 0.00 0.07 0.07 79 1015.0
20260904214738 62 278 4.0 7.0 0.00 0.07 0.07 80 1015.1
20260904214238 62 305 7.0 8.0 0.00 0.07 0.07 80 1015.1
20260904213738 62 245 3.0 9.0 0.00 0.07 0.07 79 1015.1
20260904213238 62 21 6.0 9.0 0.00 0.07 0.07 79 1015.2
20260904212738 62 263 2.0 7.0 0.00 0.07 0.07 79 1015.2
20260904212238 62 338 5.0 8.0 0.00 0.07 0.07 79 1015.2
20260904211738 62 297 3.0 8.0 0.00 0.07 0.07 77 1015.1
20260904211237 63 333 4.0 6.0 0.00 0.07 0.07 76 1015.1
20260904210738 63 238 4.0 6.0 0.00 0.07 0.07 75 1015.1
20260904210238 62 49 4.0 6.0 0.00 0.07 0.07 76 1015.1
20260904205737 62 272 4.0 5.0 0.00 0.07 0.07 78 1015.1
20260904205237 62 327 5.0 7.0 0.00 0.07 0.07 79 1015.1
20260904204737 61 338 2.0 8.0 0.00 0.07 0.07 79 1015.0
20260904204237 61 282 2.0 8.0 0.00 0.07 0.07 80 1015.0
20260904203737 61 308 6.0 8.0 0.00 0.07 0.07 79 1015.0
20260904202737 61 280 3.0 8.0 0.00 0.07 0.07 80 1015.0
20260904202236 61 348 2.0 9.0 0.00 0.07 0.07 80 1015.0
20260904201736 60 272 3.0 9.0 0.00 0.07 0.07 81 1014.9
20260904201236 60 271 2.0 7.0 0.00 0.07 0.07 81 1014.9
20260904195737 59 263 3.0 7.0 0.00 0.07 0.07 82 1015.0
20260904195236 59 279 2.0 7.0 0.00 0.07 0.07 82 1015.0
20260904194236 59 320 4.0 6.0 0.00 0.07 0.07 84 1015.0
20260904193236 59 263 4.0 8.0 0.00 0.07 0.07 82 1015.2
20260904192736 59 311 1.0 8.0 0.00 0.07 0.07 82 1015.1
20260904192236 59 328 2.0 6.0 0.00 0.07 0.07 82 1015.0
20260904191736 59 288 2.0 5.0 0.00 0.07 0.07 83 1015.0
20260904191235 58 296 0.0 6.0 0.00 0.07 0.07 83 1015.1
20260904190735 58 302 2.0 6.0 0.00 0.07 0.07 83 1015.1
20260904185236 57 324 2.0 6.0 0.00 0.07 0.07 82 1014.9
20260904184735 58 347 2.0 6.0 0.00 0.07 0.07 82 1014.9
20260904184235 57 11 6.0 6.0 0.00 0.07 0.07 84 1015.0
20260904182735 56 283 3.0 6.0 0.00 0.07 0.07 86 1014.8
20260904182234 56 278 2.0 5.0 0.00 0.07 0.07 85 1014.8
20260904181734 56 275 3.0 5.0 0.00 0.07 0.07 86 1014.7
20260904181234 56 271 2.0 5.0 0.00 0.07 0.07 86 1014.7
20260904180734 56 296 0.0 5.0 0.00 0.07 0.07 86 1014.8
20260904180234 57 262 1.0 5.0 0.00 0.07 0.07 85 1014.7
20260904175234 59 286 3.0 4.0 0.00 0.07 0.07 83 1014.7
20260904174734 60 263 0.0 2.0 0.00 0.07 0.07 85 1014.7
20260904174234 60 241 1.0 4.0 0.00 0.07 0.07 85 1014.6
20260904173733 59 150 0.0 4.0 0.00 0.07 0.07 88 1014.7
20260904173233 59 128 0.0 3.0 0.00 0.07 0.07 88 1014.6
20260904172733 58 98 2.0 3.0 0.00 0.07 0.07 89 1014.6
20260904171733 57 311 0.0 3.0 0.00 0.07 0.07 89 1014.6
20260904171233 57 359 3.0 3.0 0.00 0.07 0.07 91 1014.6
20260904170733 57 30 2.0 3.0 0.00 0.07 0.07 89 1014.7
20260904165733 57 254 0.0 3.0 0.00 0.07 0.07 91 1014.8
20260904165233 57 245 1.0 3.0 0.00 0.07 0.07 92 1014.8
20260904164733 56 245 2.0 3.0 0.00 0.07 0.07 92 1014.8
20260904164232 56 335 1.0 2.0 0.00 0.07 0.07 92 1014.7
20260904163232 55 15 0.0 5.0 0.00 0.07 0.07 93 1014.7
20260904162733 56 113 2.0 5.0 0.00 0.07 0.07 91 1014.8